[[{"header":{"parameterUnit":"m.s-1","parameterCategory":1,"la1":30.2991,"la2":30.254,"lo1":-89.0895,"lo2":-89.0444,"dy":0.0017,"dx":0.0017,"nx":28,"ny":28,"refTime":"2025-12-19T03:00:00:Z","depth":0,"parameterNumber":2,"parameterNumberName":"U-component_of_WINDS"},"data":[0,0,0,0,0,0,0,0,0,0,0,0,0,0,0,0,0,0,0,0,0,0,0,0,0,0,0,0,0,0,0,0,0,0,0,0,0,0,0,0,0,0,0,0,0,0,0,0,0,0,0,0,0,0,0,0,0,0,-1.7005,-1.7005,0,-1.6976,-1.6976,-1.6976,-1.695,-1.695,-1.695,-1.6949,-1.6921,-1.692,-1.692,0,0,0,0,0,0,0,0,0,0,0,0,0,-1.7039,-1.7039,-1.7005,-1.7005,-1.7005,-1.6976,-1.6976,-1.6976,-1.695,-1.695,-1.695,-1.6949,-1.6921,-1.692,-1.692,0,0,0,0,0,0,0,0,0,0,0,0,0,-1.7019,-1.7039,-1.7005,-1.6989,-1.6987,-1.6976,-1.6976,-1.6975,-1.695,-1.695,-1.695,-1.6949,-1.6921,-1.692,-1.692,-1.6924,0,0,-1.6917,-1.6917,0,0,0,0,0,0,0,0,-1.702,-1.7018,-1.6991,-1.699,-1.6988,-1.6966,-1.6977,-1.6958,-1.6951,-1.6964,-1.6949,-1.6949,-1.6936,-1.6934,-1.693,-1.6922,-1.6921,-1.6917,-1.6917,-1.6916,-1.6916,0,0,0,0,0,0,0,-1.7022,-1.7019,-1.6994,-1.6991,-1.6989,-1.6983,-1.6979,-1.6974,-1.6953,-1.6963,-1.6961,-1.6958,-1.6935,-1.6931,-1.6929,-1.6921,-1.6917,-1.6917,-1.6916,-1.6916,-1.6914,-1.6914,0,0,0,0,0,0,-1.7025,-1.702,-1.6995,-1.6993,-1.7003,-1.6982,-1.6979,-1.6974,-1.6953,-1.695,-1.6958,-1.6957,-1.6932,-1.693,-1.6928,-1.693,-1.6916,-1.6916,-1.6915,-1.6913,-1.6914,-1.6914,0,0,0,0,0,0,-1.7026,-1.7023,-1.6996,-1.7006,-1.7002,-1.6982,-1.6977,-1.6973,-1.6969,-1.695,-1.6946,-1.6957,-1.6932,-1.6929,-1.6924,-1.6929,-1.6915,-1.6915,-1.6913,-1.6913,-1.6914,-1.6935,0,0,0,0,0,0,-1.7027,-1.7024,-1.7025,-1.7006,-1.7002,-1.6993,-1.6977,-1.6973,-1.6967,-1.6965,-1.6948,-1.6944,-1.6931,-1.6926,-1.6924,-1.6927,-1.6914,-1.6912,-1.6913,-1.6914,-1.6934,-1.6937,-1.6939,0,0,0,0,0,-1.7029,-1.7033,-1.7025,-1.7023,-1.7003,-1.6993,-1.6991,-1.6975,-1.6968,-1.6969,-1.6956,-1.6945,-1.6929,-1.6925,-1.6923,-1.6927,-1.6912,-1.6913,-1.6914,-1.6933,-1.6936,-1.6939,0,0,0,0,0,0,-1.7054,-1.703,-1.7022,-1.702,-1.7009,-1.6989,-1.699,-1.6979,-1.697,-1.6968,-1.695,-1.6946,-1.6943,-1.6935,-1.6931,-1.6929,-1.6919,-1.6919,-1.6934,-1.6937,-1.6939,-1.6941,-1.6914,0,0,0,0,0,-1.7059,-1.7053,-1.7033,-1.7033,-1.7028,-1.701,-1.7005,-1.6994,-1.6982,-1.6977,-1.6965,-1.6954,-1.6946,-1.6941,-1.6933,-1.6933,-1.6928,-1.6934,-1.6936,-1.6938,-1.6939,-1.6937,-1.6939,-1.6917,-1.6917,-1.6917,0,0,-1.707,-1.7056,-1.7054,-1.7038,-1.7028,-1.7022,-1.7006,-1.7001,-1.6996,-1.6977,-1.6971,-1.6962,-1.6948,-1.6945,-1.6944,-1.6938,-1.6944,-1.694,-1.6941,-1.694,-1.6938,-1.694,-1.6942,-1.6918,-1.6917,-1.6917,0,0,-1.7086,-1.7076,-1.7074,-1.7064,-1.7049,-1.7037,-1.7037,-1.7019,-1.7011,-1.7005,-1.699,-1.6984,-1.6972,-1.6962,-1.6956,-1.6968,-1.6956,-1.6966,-1.6977,-1.6975,-1.6977,-1.6978,-1.6981,-1.6983,-1.6966,-1.6966,-1.6966,0,-1.7101,-1.7091,-1.7075,-1.707,-1.7063,-1.7045,-1.7042,-1.7034,-1.7017,-1.7013,-1.7007,-1.699,-1.6979,-1.6974,-1.6976,-1.6972,-1.6971,-1.6967,-1.6978,-1.6979,-1.698,-1.6983,-1.6984,-1.6967,-1.6967,-1.6967,-1.6967,0,-1.711,-1.7104,-1.7104,-1.7088,-1.7081,-1.7078,-1.7061,-1.7056,-1.7045,-1.7034,-1.7028,-1.7015,-1.7003,-1.7001,-1.6991,-1.6993,-1.699,-1.6982,-1.6971,-1.6984,-1.6986,-1.6987,-1.6969,-1.6969,-1.6968,-1.6968,0,0,-1.7141,-1.7115,-1.7115,-1.7107,-1.7089,-1.7083,-1.7079,-1.7067,-1.7063,-1.7052,-1.7047,-1.7037,-1.7028,-1.7021,-1.701,-1.7008,-1.7017,-1.7,-1.6999,-1.7002,-1.7018,-1.7023,-1.7025,-1.701,-1.701,-1.701,-1.7018,0,-1.7153,-1.7144,-1.7128,-1.7124,-1.7117,-1.7099,-1.7096,-1.7084,-1.7073,-1.7066,-1.7054,-1.7046,-1.7036,-1.7031,-1.7029,-1.7016,-1.702,-1.7016,-1.7005,-1.7004,-1.7007,-1.7026,-1.7032,-1.7041,-1.7019,-1.7019,-1.7019,0,-1.7166,-1.7155,-1.715,-1.7131,-1.7128,-1.7125,-1.7112,-1.7105,-1.7092,-1.7084,-1.7075,-1.7063,-1.7057,-1.7048,-1.7039,-1.7037,-1.7031,-1.7024,-1.7024,-1.7022,-1.7012,-1.7023,-1.7043,-1.7044,-1.7021,-1.7021,-1.7021,0,-1.7187,-1.7172,-1.7166,-1.716,-1.7138,-1.7136,-1.7127,-1.7113,-1.7106,-1.7096,-1.7091,-1.708,-1.7074,-1.7065,-1.705,-1.7045,-1.7042,-1.7032,-1.7035,-1.7035,-1.7034,-1.7035,-1.7053,-1.7033,-1.7033,-1.7033,-1.7033,0,-1.7202,-1.7199,-1.7175,-1.7172,-1.7168,-1.715,-1.7147,-1.7136,-1.7124,-1.7117,-1.7102,-1.7097,-1.7077,-1.707,-1.7058,-1.7052,-1.7049,-1.7042,-1.7039,-1.7043,-1.7044,-1.7039,-1.7037,-1.7033,-1.7033,-1.7033,-1.7033,0,-1.7224,-1.7208,-1.7201,-1.7181,-1.7176,-1.7174,-1.7156,-1.7152,-1.714,-1.7133,-1.713,-1.7112,-1.7102,-1.7086,-1.7072,-1.7063,-1.7059,-1.7054,-1.7063,-1.7061,-1.7064,-1.7064,-1.7079,-1.708,-1.7061,-1.7061,-1.7061,0,-1.7234,-1.7231,-1.721,-1.7205,-1.7196,-1.7188,-1.7181,-1.7164,-1.7157,-1.7141,-1.7139,-1.7127,-1.7117,-1.7102,-1.7088,-1.7076,-1.707,-1.7077,-1.7069,-1.7072,-1.7069,-1.7069,-1.7068,-1.7078,-1.7078,-1.7079,-1.7079,0,-1.7252,-1.7244,-1.7235,-1.7222,-1.7214,-1.7204,-1.7192,-1.7189,-1.7169,-1.7162,-1.7152,-1.7144,-1.7129,-1.7118,-1.7104,-1.7095,-1.7083,-1.7082,-1.7081,-1.7085,-1.709,-1.7086,-1.7067,-1.7081,-1.7081,-1.7081,-1.7081,-1.7081,-1.7267,-1.7264,-1.7248,-1.7238,-1.7228,-1.7217,-1.7212,-1.7199,-1.719,-1.7176,-1.7167,-1.7156,-1.7142,-1.7123,-1.7114,-1.7105,-1.71,-1.7101,-1.71,-1.71,-1.7101,-1.7092,-1.7103,-1.7103,-1.7103,-1.7103,-1.7103,0,-1.7284,-1.7273,-1.7264,-1.7248,-1.724,-1.723,-1.7216,-1.721,-1.7201,-1.7189,-1.7179,-1.7166,-1.7155,-1.714,-1.7127,-1.7124,-1.7118,-1.7121,-1.712,-1.7118,-1.7107,-1.7108,-1.7126,-1.7126,-1.7126,-1.7126,-1.7126,-1.7126,-1.7291,-1.7284,-1.7274,-1.7261,-1.7251,-1.724,-1.7233,-1.7224,-1.7213,-1.72,-1.719,-1.718,-1.7166,-1.7153,-1.7142,-1.7138,-1.7133,-1.7138,-1.7132,-1.7121,-1.7119,-1.7117,-1.7118,-1.7137,-1.7137,-1.7143,-1.7143,-1.7143]},{"header":{"parameterUnit":"m.s-1","parameterCategory":1,"la1":30.2991,"la2":30.254,"lo1":-89.0895,"lo2":-89.0444,"dy":0.0017,"dx":0.0017,"nx":28,"ny":28,"refTime":"2025-12-19T03:00:00:Z","depth":0,"parameterNumber":3,"parameterNumberName":"V-component_of_WINDS"},"data":[0,0,0,0,0,0,0,0,0,0,0,0,0,0,0,0,0,0,0,0,0,0,0,0,0,0,0,0,0,0,0,0,0,0,0,0,0,0,0,0,0,0,0,0,0,0,0,0,0,0,0,0,0,0,0,0,0,0,1.6083,1.6084,0,1.6187,1.6188,1.6189,1.6239,1.6239,1.6239,1.6238,1.6344,1.6346,1.6349,0,0,0,0,0,0,0,0,0,0,0,0,0,1.5928,1.5931,1.6083,1.6085,1.6086,1.6187,1.6188,1.619,1.6239,1.6239,1.6239,1.6238,1.6343,1.6346,1.6349,0,0,0,0,0,0,0,0,0,0,0,0,0,1.601,1.5932,1.6083,1.6122,1.6127,1.6187,1.6188,1.619,1.6239,1.6239,1.6239,1.6238,1.6342,1.6346,1.635,1.6378,0,0,1.6363,1.6365,0,0,0,0,0,0,0,0,1.6005,1.6016,1.6115,1.612,1.6125,1.62,1.6172,1.6253,1.6239,1.6196,1.6238,1.6238,1.6296,1.6304,1.6323,1.6383,1.6387,1.6363,1.6366,1.6368,1.6369,0,0,0,0,0,0,0,1.6,1.6011,1.6124,1.6117,1.6123,1.6135,1.6147,1.6188,1.6245,1.62,1.6204,1.6215,1.6298,1.6319,1.6326,1.6389,1.6363,1.6367,1.637,1.6371,1.6479,1.648,0,0,0,0,0,0,1.5988,1.6006,1.6121,1.6127,1.6064,1.6138,1.6151,1.6176,1.6245,1.6255,1.6215,1.6217,1.6312,1.6321,1.633,1.637,1.6368,1.6372,1.6374,1.6479,1.6479,1.648,0,0,0,0,0,0,1.5984,1.5997,1.6117,1.6068,1.6084,1.6141,1.6168,1.6178,1.6199,1.6257,1.6267,1.6226,1.6312,1.6324,1.6366,1.6374,1.6374,1.6378,1.6479,1.6479,1.648,1.6447,0,0,0,0,0,0,1.5979,1.5996,1.6007,1.6068,1.6087,1.6151,1.6169,1.618,1.6206,1.621,1.6269,1.6279,1.6313,1.636,1.6371,1.638,1.6381,1.6478,1.6479,1.6479,1.6448,1.6446,1.6445,0,0,0,0,0,1.5974,1.5992,1.6007,1.602,1.6101,1.6151,1.6162,1.6201,1.6207,1.6218,1.6256,1.6277,1.6371,1.6364,1.6376,1.6387,1.6478,1.6479,1.6479,1.6448,1.6447,1.6445,0,0,0,0,0,0,1.5929,1.6001,1.6018,1.6057,1.6098,1.6159,1.6175,1.6198,1.6237,1.6239,1.6285,1.6299,1.6337,1.6366,1.6357,1.6419,1.6427,1.643,1.6399,1.6398,1.6396,1.6389,1.6384,0,0,0,0,0,1.5924,1.5959,1.6019,1.6048,1.6068,1.6118,1.6141,1.6168,1.6212,1.6229,1.627,1.6312,1.6351,1.6376,1.6415,1.6452,1.6467,1.6466,1.6464,1.6463,1.6466,1.649,1.6491,1.6482,1.6482,1.6482,0,0,1.5913,1.5957,1.5976,1.604,1.6075,1.6111,1.6132,1.6168,1.6195,1.6235,1.6278,1.6309,1.6359,1.64,1.6419,1.6425,1.6471,1.6464,1.6462,1.6466,1.6491,1.6492,1.6492,1.6483,1.6482,1.6482,0,0,1.5913,1.5949,1.5978,1.6013,1.6066,1.61,1.6106,1.6166,1.6188,1.6232,1.6264,1.6296,1.6362,1.6397,1.6424,1.6439,1.6461,1.645,1.6444,1.6467,1.6468,1.6469,1.6476,1.6478,1.6453,1.6452,1.6452,0,1.5893,1.5948,1.599,1.6025,1.6053,1.6092,1.6123,1.6154,1.6217,1.6236,1.6241,1.6327,1.6362,1.6413,1.6417,1.6437,1.6447,1.6444,1.6465,1.6466,1.6467,1.6475,1.6477,1.6451,1.6451,1.6451,1.6451,0,1.5922,1.596,1.5977,1.6038,1.6068,1.6101,1.6148,1.6174,1.6198,1.6232,1.6277,1.6322,1.6372,1.6386,1.6409,1.6441,1.6443,1.6455,1.6465,1.6466,1.6474,1.6477,1.6449,1.6449,1.645,1.645,0,0,1.5896,1.5981,1.5987,1.6017,1.6079,1.6109,1.6144,1.6194,1.6216,1.6258,1.629,1.6346,1.6359,1.6389,1.6417,1.6437,1.6449,1.6448,1.645,1.6448,1.6489,1.648,1.6483,1.6464,1.6464,1.6465,1.6485,0,1.5905,1.597,1.601,1.6059,1.6096,1.6134,1.6165,1.6207,1.6239,1.6275,1.6311,1.6351,1.6364,1.6383,1.6404,1.6443,1.6458,1.6442,1.6495,1.6496,1.6482,1.6487,1.6477,1.6494,1.6489,1.6489,1.6489,0,1.5925,1.5968,1.6021,1.6082,1.6099,1.6126,1.6176,1.6209,1.6258,1.6281,1.6315,1.6344,1.6384,1.6389,1.6445,1.6433,1.6457,1.648,1.6481,1.6489,1.6494,1.6496,1.65,1.6503,1.6494,1.6494,1.6494,0,1.5903,1.5974,1.6016,1.6039,1.6111,1.6129,1.616,1.6209,1.6237,1.6281,1.63,1.6347,1.6374,1.641,1.6451,1.6451,1.6504,1.6512,1.6525,1.6524,1.6535,1.6534,1.6545,1.6548,1.6548,1.6547,1.6547,0,1.591,1.5941,1.6007,1.6033,1.607,1.6116,1.6151,1.6185,1.6229,1.6262,1.6297,1.6328,1.638,1.6418,1.645,1.6493,1.6504,1.6524,1.6533,1.6522,1.652,1.6539,1.654,1.6548,1.6548,1.6548,1.6548,0,1.5891,1.5937,1.5985,1.605,1.6067,1.6091,1.6147,1.6174,1.6209,1.6251,1.6263,1.6318,1.6365,1.6409,1.6471,1.6493,1.6536,1.6546,1.652,1.6525,1.6536,1.6535,1.6561,1.6567,1.6564,1.6564,1.6564,0,1.5894,1.5919,1.5987,1.6013,1.6043,1.6083,1.6113,1.6159,1.6189,1.6248,1.6268,1.6318,1.6359,1.6432,1.6477,1.6525,1.6538,1.6544,1.6545,1.6534,1.654,1.6539,1.6543,1.6543,1.6542,1.6542,1.6542,0,1.5894,1.5915,1.5957,1.6008,1.6042,1.6084,1.6127,1.6146,1.62,1.6232,1.6281,1.6313,1.6377,1.6426,1.648,1.6512,1.6537,1.6541,1.6547,1.6537,1.6522,1.6532,1.6519,1.6541,1.6541,1.6541,1.6541,1.6541,1.5887,1.5913,1.5965,1.6011,1.6049,1.6089,1.6118,1.6158,1.6199,1.6256,1.628,1.633,1.638,1.6455,1.6487,1.6526,1.6532,1.654,1.6543,1.6544,1.6543,1.6514,1.6536,1.6536,1.6536,1.6536,1.6536,0,1.5891,1.5927,1.5969,1.6029,1.6065,1.6086,1.6136,1.6165,1.6208,1.6253,1.6295,1.6352,1.64,1.645,1.6501,1.6523,1.6536,1.6535,1.6535,1.6542,1.6534,1.6524,1.6524,1.6524,1.6524,1.6524,1.6524,1.6524,1.5897,1.5942,1.597,1.6035,1.6071,1.6121,1.6147,1.6185,1.6222,1.6284,1.6325,1.6357,1.6405,1.646,1.6506,1.652,1.6538,1.6534,1.6551,1.6542,1.6542,1.6543,1.6535,1.6537,1.6537,1.6556,1.6557,1.6557]}]]